FW2602 Weather Reports


time (UTC)temp
C
wind
direction
speed
KPH
gust
KPH
rain 1hr
cm
rain 24hr
cm
rain mn
cm
humidity
%
barometer
mb
20260506193016 12 90 1.6 9.7 0.00 1.12 1.04 89 1004.1
20260506192527 12 80 3.2 8.0 0.00 1.12 1.04 86 1003.9
20260506192011 14 117 0.0 19.3 0.00 1.12 1.04 86 1003.8
20260506191010 15 294 3.2 16.1 0.00 1.12 1.04 89 1003.7
20260506190523 15 294 8.0 16.1 0.00 1.12 1.04 89 1003.9
20260506190008 15 277 6.4 16.1 0.00 1.12 1.04 90 1003.9
20260506185520 15 271 3.2 17.7 0.00 1.12 1.04 91 1003.9
20260506185006 15 302 9.7 17.7 0.03 1.12 1.04 91 1003.8
20260506184519 15 239 4.8 16.1 0.03 1.12 1.04 92 1003.7
20260506184020 15 237 8.0 16.1 0.03 1.12 1.04 92 1003.7
20260506183513 15 269 4.8 14.5 0.05 1.12 1.04 93 1003.8
20260506183020 14 274 3.2 14.5 0.05 1.12 1.04 93 1003.7
20260506182510 14 307 1.6 9.7 0.05 1.12 1.04 93 1003.8
20260506182019 14 279 1.6 8.0 0.05 1.12 1.04 93 1003.9
20260506181526 14 198 0.0 8.0 0.05 1.12 1.04 93 1003.9
20260506181011 14 285 3.2 8.0 0.08 1.12 1.04 93 1004.0
20260506180520 14 255 1.6 11.3 0.08 1.12 1.04 93 1004.0
20260506180005 14 283 3.2 11.3 0.10 1.12 1.04 93 1004.1
20260506175515 14 287 4.8 11.3 0.10 1.12 1.04 93 1004.2
20260506175103 14 235 0.0 6.4 0.10 1.09 1.02 93 1004.1
20260506174510 14 289 0.0 4.8 0.13 1.09 1.02 94 1004.2
20260506174016 14 274 0.0 4.8 0.13 1.09 1.02 93 1004.1
20260506173512 14 271 0.0 4.8 0.10 1.07 0.99 94 1004.1
20260506173012 14 214 0.0 1.6 0.13 1.07 0.99 94 1004.1
20260506172525 14 269 0.0 1.6 0.15 1.07 0.99 94 1004.2
20260506172009 14 270 0.0 3.2 0.18 1.07 0.99 94 1004.2
20260506171524 14 264 0.0 3.2 0.20 1.07 0.99 93 1004.2
20260506171011 14 149 0.0 3.2 0.18 1.04 0.97 94 1004.2
20260506170516 14 148 0.0 1.6 0.18 1.04 0.97 94 1004.2
20260506170017 14 148 0.0 0.0 0.18 1.02 0.94 94 1004.2
20260506165526 14 148 0.0 0.0 0.18 1.02 0.94 94 1004.2
20260506165014 14 148 0.0 0.0 0.15 0.99 0.91 94 1004.3
20260506164527 14 146 0.0 0.0 0.15 0.97 0.89 94 1004.3
20260506164009 13 146 0.0 1.6 0.15 0.97 0.89 94 1004.4
20260506163008 13 146 0.0 0.0 0.13 0.94 0.86 94 1004.4
20260506162519 13 146 0.0 4.8 0.13 0.91 0.84 94 1004.4
20260506162019 13 146 0.0 4.8 0.10 0.89 0.81 94 1004.5
20260506161510 13 111 0.0 8.0 0.08 0.86 0.79 94 1004.5
20260506161018 13 295 1.6 8.0 0.10 0.86 0.79 94 1004.4
20260506160514 13 262 1.6 6.4 0.10 0.86 0.79 94 1004.4
20260506160028 13 338 3.2 9.7 0.10 0.84 0.76 94 1004.4
20260506155526 13 314 1.6 14.5 0.13 0.84 0.76 94 1004.3
20260506155014 13 181 0.0 14.5 0.15 0.84 0.76 94 1004.2
20260506154525 13 86 1.6 9.7 0.13 0.81 0.71 94 1004.2
20260506154010 13 172 1.6 12.9 0.15 0.81 0.71 94 1004.3
20260506153519 13 271 0.0 12.9 0.15 0.81 0.71 94 1004.3
20260506153005 13 221 3.2 11.3 0.15 0.79 0.71 94 1004.3
20260506152517 13 46 3.2 12.9 0.18 0.79 0.71 94 1004.3
20260506152021 13 158 4.8 12.9 0.18 0.79 0.71 94 1004.3
20260506151517 13 264 1.6 11.3 0.20 0.79 0.71 94 1004.5
20260506151014 13 40 1.6 14.5 0.20 0.76 0.69 94 1004.6
20260506150523 13 104 1.6 14.5 0.23 0.76 0.69 94 1004.7
20260506150010 13 23 0.0 6.4 0.23 0.71 0.66 94 1004.8
20260506145520 13 170 1.6 8.0 0.23 0.71 0.64 94 1004.9
20260506145006 13 44 1.6 24.1 0.23 0.69 0.61 94 1004.8
20260506144520 13 40 1.6 24.1 0.25 0.69 0.61 94 1004.9
20260506144018 13 72 1.6 6.4 0.25 0.66 0.58 94 1004.9
20260506143507 12 72 1.6 8.0 0.25 0.66 0.58 94 1005.0
20260506143019 12 338 0.0 8.0 0.23 0.64 0.56 94 1005.2
20260506142527 12 224 0.0 8.0 0.23 0.61 0.53 93 1005.5
20260506142014 12 300 0.0 4.8 0.23 0.61 0.53 93 1005.6
20260506141524 12 329 0.0 4.8 0.20 0.58 0.51 93 1005.7
20260506141019 12 323 0.0 4.8 0.18 0.56 0.48 94 1005.6
20260506140510 12 301 0.0 3.2 0.18 0.53 0.46 93 1005.7
20260506140019 12 258 0.0 3.2 0.15 0.51 0.43 93 1005.7
20260506135510 12 296 0.0 3.2 0.13 0.48 0.41 93 1005.8
20260506135018 12 278 0.0 1.6 0.10 0.46 0.38 93 1005.9
20260506134528 12 292 0.0 1.6 0.08 0.43 0.36 92 1005.9
20260506134012 12 292 0.0 0.0 0.05 0.41 0.33 92 1005.9
20260506133523 12 293 0.0 1.6 0.05 0.41 0.33 92 1005.8
20260506133007 12 293 0.0 4.8 0.05 0.41 0.33 92 1005.8
20260506132518 12 295 0.0 3.2 0.03 0.38 0.30 92 1005.6
20260506132021 12 303 0.0 4.8 0.05 0.38 0.30 92 1005.5
20260506131529 12 255 0.0 4.8 0.05 0.38 0.30 92 1005.6
20260506131014 12 272 1.6 4.8 0.08 0.38 0.30 92 1005.6
20260506130525 12 53 0.0 6.4 0.05 0.36 0.28 91 1005.4
20260506130008 12 290 3.2 6.4 0.08 0.36 0.28 91 1005.4
20260506125517 12 345 0.0 6.4 0.10 0.36 0.28 91 1005.3
20260506125006 12 314 1.6 8.0 0.13 0.36 0.28 91 1005.3
20260506124517 12 295 0.0 9.7 0.13 0.36 0.28 92 1005.3
20260506124020 12 338 1.6 9.7 0.15 0.36 0.28 92 1005.5
20260506123511 12 288 1.6 8.0 0.15 0.36 0.28 92 1005.7
20260506123017 12 301 1.6 6.4 0.18 0.36 0.28 92 1005.6
20260506122525 12 294 0.0 8.0 0.15 0.33 0.25 92 1005.7
20260506122011 12 269 1.6 8.0 0.18 0.33 0.25 92 1005.6
20260506121520 12 218 1.6 14.5 0.18 0.33 0.25 93 1005.7
20260506121011 12 342 1.6 14.5 0.15 0.30 0.23 93 1005.8
20260506120532 12 313 3.2 12.9 0.18 0.30 0.23 94 1006.1
20260506120034 11 262 3.2 12.9 0.15 0.28 0.20 95 1006.1
20260506115533 11 312 0.0 4.8 0.13 0.25 0.18 95 1006.1
20260506115033 11 111 0.0 4.8 0.13 0.23 0.15 95 1006.2
20260506114530 11 259 0.0 3.2 0.13 0.23 0.15 95 1006.3
20260506114032 11 168 0.0 3.2 0.10 0.20 0.13 95 1006.3
20260506113530 10 95 1.6 4.8 0.10 0.20 0.13 94 1006.2
20260506113029 10 74 0.0 6.4 0.08 0.18 0.10 93 1006.3
20260506112530 11 304 0.0 4.8 0.08 0.18 0.10 95 1006.3
20260506112029 11 86 0.0 3.2 0.05 0.15 0.08 95 1006.2
20260506111528 10 104 0.0 1.6 0.08 0.15 0.08 94 1006.2
20260506111030 10 104 0.0 3.2 0.08 0.15 0.08 93 1006.1
20260506110532 10 104 0.0 1.6 0.05 0.13 0.05 94 1006.0
20260506110027 10 95 0.0 3.2 0.05 0.13 0.05 94 1005.9
20260506105527 11 94 0.0 3.2 0.05 0.13 0.05 95 1005.8
20260506105030 10 91 0.0 4.8 0.03 0.10 0.03 95 1005.8
20260506104526 10 88 1.6 4.8 0.03 0.10 0.03 94 1005.9
20260506104025 10 84 0.0 1.6 0.03 0.10 0.03 94 1005.8
20260506103525 10 61 0.0 1.6 0.03 0.10 0.03 94 1005.9
20260506103035 10 64 0.0 3.2 0.03 0.10 0.03 93 1005.9
20260506102525 10 3 0.0 3.2 0.03 0.10 0.03 93 1006.0
20260506102025 10 293 0.0 3.2 0.03 0.10 0.03 93 1006.0
20260506101524 10 49 0.0 1.6 0.00 0.08 0.00 93 1006.0
20260506101023 10 48 0.0 1.6 0.00 0.08 0.00 93 1005.9
20260506100525 10 50 0.0 1.6 0.00 0.08 0.00 93 1005.8
20260506100124 10 49 0.0 1.6 0.00 0.08 0.00 93 1005.7
20260506095523 10 359 0.0 1.6 0.00 0.13 0.00 92 1005.8
20260506095021 10 295 0.0 1.6 0.00 0.13 0.00 92 1005.8
20260506094528 10 295 0.0 3.2 0.00 0.13 0.00 92 1005.9
20260506094024 10 295 0.0 4.8 0.00 0.13 0.00 91 1005.9
20260506093519 10 290 0.0 4.8 0.00 0.13 0.00 91 1005.8
20260506093020 10 253 0.0 3.2 0.00 0.13 0.00 90 1005.5
20260506092521 10 359 0.0 1.6 0.00 0.13 0.00 90 1005.6
20260506092021 10 37 0.0 1.6 0.00 0.13 0.00 90 1005.6
20260506091518 10 73 0.0 0.0 0.00 0.13 0.00 90 1005.7
20260506091016 10 73 0.0 0.0 0.00 0.13 0.00 89 1005.7
20260506090516 10 73 0.0 0.0 0.00 0.13 0.00 89 1005.5
20260506090016 10 74 0.0 1.6 0.00 0.13 0.00 89 1005.5
20260506085518 10 73 0.0 3.2 0.00 0.13 0.00 89 1005.6
20260506085015 10 73 0.0 3.2 0.00 0.13 0.00 89 1005.7
20260506084514 10 58 0.0 0.0 0.00 0.13 0.00 88 1005.8
20260506084013 10 58 0.0 0.0 0.00 0.13 0.00 88 1006.0
20260506083513 10 58 0.0 0.0 0.00 0.13 0.00 88 1006.0
20260506083013 10 58 0.0 1.6 0.00 0.13 0.00 88 1005.9
20260506082516 10 58 0.0 1.6 0.00 0.13 0.00 88 1006.0
20260506082011 10 84 0.0 3.2 0.00 0.13 0.00 88 1006.0
20260506081510 10 84 1.6 3.2 0.00 0.13 0.00 87 1006.0
20260506081010 10 84 0.0 1.6 0.00 0.13 0.00 87 1006.1
20260506080510 10 84 0.0 0.0 0.00 0.13 0.00 87 1006.3
20260506073505 11 85 0.0 0.0 0.00 0.13 0.00 86 1006.6
20260506073008 11 85 0.0 0.0 0.00 0.13 0.00 85 1006.6
20260506072505 11 84 0.0 1.6 0.00 0.13 0.00 85 1006.7
20260506072006 11 84 0.0 3.2 0.00 0.13 0.00 85 1006.6
20260506071505 11 84 0.0 3.2 0.00 0.13 0.00 85 1006.7
20260506071003 11 86 0.0 6.4 0.00 0.13 0.00 85 1006.6
20260506070505 11 77 1.6 6.4 0.00 0.13 0.00 85 1006.6
20260506062059 11 266 0.0 1.6 0.00 0.13 0.00 85 1007.0
20260506061556 11 265 0.0 1.6 0.00 0.13 0.00 85 1007.0
20260506061100 11 266 0.0 1.6 0.00 0.13 0.00 85 1007.1
20260506060555 11 265 0.0 1.6 0.00 0.13 0.00 85 1007.0
20260506060119 11 265 0.0 1.6 0.00 0.13 0.00 85 1007.1
20260506051050 11 265 0.0 0.0 0.00 0.13 0.00 84 1007.7
20260506050550 11 266 0.0 0.0 0.00 0.13 0.00 84 1007.7
20260506045050 11 265 0.0 1.6 0.00 0.13 0.00 83 1007.4
20260506044554 11 264 0.0 3.2 0.00 0.13 0.00 83 1007.6
20260506044046 11 253 0.0 3.2 0.00 0.13 0.00 83 1007.9
20260506043546 11 264 0.0 3.2 0.00 0.13 0.00 83 1007.9
20260506043045 11 297 1.6 3.2 0.00 0.13 0.00 84 1008.0
20260506042545 11 135 0.0 1.6 0.00 0.13 0.00 84 1007.9
20260506042045 11 136 0.0 0.0 0.00 0.13 0.00 84 1007.9
20260506041543 11 136 0.0 0.0 0.00 0.13 0.00 84 1008.0
20260506041042 11 136 0.0 0.0 0.00 0.13 0.00 84 1008.0
20260506040541 11 136 0.0 0.0 0.00 0.13 0.00 83 1007.9
20260506040042 11 135 0.0 0.0 0.00 0.13 0.00 83 1007.9
20260506035541 11 135 0.0 1.6 0.00 0.13 0.13 82 1008.0
20260506035039 12 136 0.0 1.6 0.00 0.13 0.13 81 1008.1
20260506034539 12 135 0.0 1.6 0.00 0.13 0.13 81 1008.2
20260506034039 12 135 0.0 1.6 0.00 0.13 0.13 81 1008.1
20260506033538 12 134 0.0 1.6 0.00 0.13 0.13 81 1008.0
20260506033038 12 132 0.0 4.8 0.00 0.13 0.13 81 1008.0
20260506032542 12 287 0.0 4.8 0.00 0.13 0.13 81 1008.2
20260506032041 12 296 0.0 4.8 0.00 0.13 0.13 81 1008.1
20260506031537 12 329 0.0 6.4 0.00 0.13 0.13 82 1008.3
20260506031040 12 70 0.0 8.0 0.00 0.13 0.13 82 1008.1
20260506030539 12 302 3.2 12.9 0.00 0.13 0.13 82 1008.1
20260506030037 12 267 1.6 12.9 0.00 0.13 0.13 83 1008.0
20260506025534 12 281 1.6 9.7 0.00 0.13 0.13 84 1008.1
20260506025033 12 301 4.8 8.0 0.00 0.13 0.13 85 1007.9
20260506024543 12 288 0.0 1.6 0.00 0.13 0.13 85 1007.9
20260506024031 12 100 0.0 1.6 0.00 0.13 0.13 84 1007.8
20260506023631 12 165 0.0 4.8 0.00 0.13 0.13 84 1007.8
20260506023031 12 98 1.6 4.8 0.00 0.13 0.13 83 1007.5
20260506022530 13 149 0.0 4.8 0.00 0.13 0.13 84 1007.7
20260506022027 13 116 0.0 9.7 0.00 0.13 0.13 83 1007.6
20260506021526 13 60 1.6 9.7 0.00 0.13 0.13 83 1007.7
20260506021026 14 271 0.0 8.0 0.00 0.13 0.13 84 1007.7
20260506020526 15 87 1.6 8.0 0.00 0.13 0.13 83 1007.5
20260506020023 15 136 1.6 4.8 0.00 0.13 0.13 83 1007.5
20260506015525 15 323 0.0 3.2 0.00 0.13 0.13 83 1007.2
20260506015024 15 274 0.0 3.2 0.00 0.13 0.13 83 1007.2
20260506014524 15 305 0.0 4.8 0.00 0.13 0.13 82 1007.2
20260506014022 15 302 0.0 4.8 0.00 0.13 0.13 82 1007.1
20260506013522 15 289 0.0 1.6 0.00 0.13 0.13 83 1006.8
20260506013022 16 290 0.0 9.7 0.00 0.13 0.13 82 1006.7
20260506012522 16 260 3.2 11.3 0.00 0.13 0.13 80 1006.7
20260506012024 16 296 6.4 11.3 0.00 0.13 0.13 77 1006.6
20260506011521 16 299 1.6 8.0 0.00 0.13 0.13 78 1006.3
20260506011021 16 255 1.6 8.0 0.00 0.13 0.13 77 1006.3
20260506010521 16 296 1.6 12.9 0.00 0.13 0.13 78 1006.2
20260506010021 16 296 3.2 12.9 0.00 0.13 0.13 78 1006.2
20260506005520 16 304 1.6 12.9 0.00 0.13 0.13 80 1006.2
20260506005020 16 299 4.8 9.7 0.00 0.13 0.13 84 1006.1
20260506004521 15 285 3.2 14.5 0.00 0.13 0.13 90 1006.1
20260506004020 15 276 9.7 17.7 0.00 0.13 0.13 93 1006.1
20260506003520 15 258 6.4 17.7 0.00 0.13 0.13 93 1006.1
20260506003020 15 267 4.8 17.7 0.00 0.13 0.13 93 1006.1
20260506002519 14 294 8.0 17.7 0.00 0.13 0.13 93 1005.8
20260506002019 14 265 9.7 16.1 0.00 0.13 0.13 92 1005.8
20260506001519 14 280 6.4 17.7 0.00 0.13 0.13 92 1005.8
20260506001018 15 295 8.0 19.3 0.00 0.13 0.13 91 1005.9
20260506000516 15 263 11.3 25.7 0.00 0.13 0.13 89 1005.9
20260506000016 16 283 14.5 25.7 0.00 0.13 0.13 80 1006.1
20260505235515 17 277 14.5 24.1 0.00 0.13 0.13 71 1006.3
20260505235015 17 262 11.3 22.5 0.00 0.13 0.13 71 1005.7
20260505234526 17 290 9.7 17.7 0.00 0.13 0.13 72 1005.5
20260505234015 17 262 11.3 20.9 0.00 0.13 0.13 71 1005.6
20260505233515 17 285 9.7 22.5 0.00 0.13 0.13 69 1005.4
20260505233019 17 316 11.3 22.5 0.00 0.13 0.13 70 1005.2
20260505232526 17 280 8.0 25.7 0.00 0.13 0.13 70 1005.2
20260505232010 17 205 11.3 25.7 0.00 0.13 0.13 70 1005.0
20260505231519 17 145 6.4 22.5 0.00 0.13 0.13 72 1005.0
20260505231002 17 278 8.0 17.7 0.00 0.13 0.13 72 1005.1
20260505230515 17 280 9.7 17.7 0.00 0.13 0.13 72 1005.1
20260505230042 17 255 9.7 20.9 0.00 0.13 0.13 72 1005.0
20260505225513 17 295 9.7 20.9 0.00 0.13 0.13 72 1004.9
20260505225015 17 260 6.4 16.1 0.00 0.13 0.13 72 1004.8
20260505224528 17 283 8.0 14.5 0.03 0.13 0.13 73 1004.8
20260505224014 17 273 8.0 14.5 0.03 0.13 0.13 72 1004.9
20260505223527 17 289 8.0 19.3 0.03 0.13 0.13 74 1004.8
20260505223010 16 302 8.0 19.3 0.05 0.13 0.13 75 1004.7
20260505222523 16 280 11.3 17.7 0.05 0.13 0.13 76 1004.8
20260505222009 16 280 11.3 17.7 0.05 0.13 0.13 77 1004.8
20260505221520 16 290 8.0 17.7 0.05 0.13 0.13 78 1004.9
20260505221010 15 305 8.0 20.9 0.05 0.13 0.13 81 1005.1
20260505220518 15 294 4.8 20.9 0.08 0.13 0.13 83 1005.4
20260505220004 15 280 12.9 25.7 0.08 0.13 0.13 83 1005.7
20260505215516 15 289 17.7 25.7 0.08 0.13 0.13 83 1005.7
20260505215021 15 274 12.9 27.4 0.08 0.13 0.13 84 1005.8
20260505214511 16 289 14.5 38.6 0.05 0.10 0.10 82 1005.9
20260505214017 16 294 16.1 38.6 0.05 0.10 0.10 81 1005.8
20260505213510 16 266 16.1 35.4 0.05 0.10 0.10 81 1006.1
20260505213016 16 307 20.9 35.4 0.03 0.08 0.08 81 1006.3
20260505212510 16 269 20.9 32.2 0.03 0.08 0.08 81 1006.1
20260505212016 16 298 19.3 32.2 0.03 0.08 0.08 80 1005.7
20260505211528 16 293 17.7 27.4 0.03 0.08 0.08 79 1005.5
20260505211014 17 269 16.1 33.8 0.03 0.08 0.08 75 1005.4
20260505210524 18 245 17.7 33.8 0.00 0.05 0.05 69 1005.6
20260505210015 20 314 4.8 22.5 0.00 0.05 0.05 61 1004.8
20260505205525 21 297 3.2 30.6 0.00 0.05 0.05 52 1004.5
20260505205014 23 273 6.4 17.7 0.00 0.05 0.05 38 1003.8
20260505204522 23 304 9.7 37.0 0.00 0.05 0.05 37 1003.4
20260505204010 23 296 11.3 35.4 0.00 0.05 0.05 37 1003.2
20260505203519 23 293 9.7 27.4 0.00 0.05 0.05 37 1003.2
20260505203002 23 288 9.7 33.8 0.00 0.05 0.05 37 1003.1
20260505202513 23 266 17.7 37.0 0.00 0.05 0.05 36 1003.0
20260505202021 23 274 24.1 37.0 0.00 0.05 0.05 37 1003.0
20260505201514 23 285 8.0 22.5 0.00 0.05 0.05 44 1002.9
20260505201016 23 292 12.9 22.5 0.00 0.05 0.05 42 1002.8
20260505200528 23 290 9.7 20.9 0.00 0.05 0.05 42 1002.6
20260505200012 23 301 12.9 24.1 0.00 0.05 0.05 42 1002.5
20260505195523 23 295 14.5 29.0 0.00 0.05 0.05 43 1002.5
20260505195006 23 283 16.1 29.0 0.00 0.05 0.05 45 1002.6
20260505194517 23 298 14.5 24.1 0.00 0.05 0.05 45 1002.6
20260505194011 22 285 11.3 32.2 0.00 0.05 0.05 45 1002.8
20260505193524 22 302 17.7 32.2 0.00 0.05 0.05 51 1003.0